Location: Newark
(40.9833°N, 0.0333°W)
Time: 05:30:48
(UTC+00:00)

Vanguard 2 Rocket - Pass Details

Date: 03 November 2020
Orbit: 554 x 3326 km, 32.9° (Epoch: 24 November)

Event Time Altitude Azimuth Distance (km) Brightness Sun altitude
Rises 19:09:04 0° 258° (WSW) 2,734 10.6 -26.0°
Reaches altitude 10° 19:11:31 10° 243° (WSW) 1,824 9.2 -26.5°
Enters shadow 19:14:06 23° 203° (SSW) 1,235 7.7 -27.0°
Maximum altitude 19:14:45 24° 187° (S) 1,222 - -27.1°
Drops below altitude 10° 19:18:32 10° 132° (SE) 2,148 - -27.8°
Sets 19:21:42 0° 119° (ESE) 3,362 - -28.4°
